Location: Degersen
(52.2871°N, 9.5716°E)
Time: 14:32:46
(UTC+00:00)

Cosmos 1809 Rocket - Visible Passes

Search period start: 11 April 2026 00:00
Search period end: 21 April 2026 00:00
Orbit: 940 x 963 km, 82.5° (Epoch: 11 April)

Date Brightness Start Highest point End Pass type
(mag) Time Alt. Az. Time Alt. Az. Time Alt. Az.
11 Apr 4.4 19:54:16 10° N 20:00:26 74° ENE 20:05:08 18° SSE visible
11 Apr 6.3 21:40:06 10° NNW 21:44:45 23° W 21:49:19 10° SW visible
12 Apr 4.6 20:12:35 10° NNW 20:18:45 77° W 20:23:47 16° S visible
12 Apr 6.8 21:59:14 10° NW 22:02:39 16° WNW 22:06:04 10° WSW visible
13 Apr 5.2 18:46:11 10° N 18:51:44 34° ENE 18:57:16 10° SE visible
13 Apr 5.1 20:31:01 10° NNW 20:36:57 53° W 20:42:29 12° SSW visible
14 Apr 4.8 19:04:18 10° N 19:10:16 48° ENE 19:16:13 10° SE visible
14 Apr 5.8 20:49:33 10° NNW 20:55:04 36° W 21:00:34 10° SSW visible
15 Apr 4.5 19:22:31 10° N 19:28:41 71° ENE 19:34:50 10° SSE visible
15 Apr 6.4 21:08:16 10° NNW 21:13:04 24° W 21:17:52 10° SW visible
16 Apr 4.6 19:40:50 10° NNW 19:47:00 81° W 19:53:11 10° S visible
16 Apr 6.9 21:27:20 10° NW 21:30:58 16° WNW 21:34:37 10° WSW visible
17 Apr 5.1 19:59:13 10° NNW 20:05:14 55° W 20:11:13 10° S visible
17 Apr 7.2 21:47:39 10° WNW 21:48:46 10° WNW 21:49:54 10° W visible
18 Apr 5.8 20:17:46 10° NNW 20:23:20 38° W 20:28:56 10° SSW visible
19 Apr 4.5 18:50:46 10° N 18:56:56 67° ENE 19:03:05 10° SSE visible
19 Apr 6.4 20:36:26 10° NNW 20:41:22 26° W 20:46:18 10° SW visible
20 Apr 4.6 19:09:04 10° NNW 19:15:16 85° W 19:21:27 10° S visible
20 Apr 6.9 20:55:26 10° NW 20:59:17 17° WNW 21:03:08 10° WSW visible
